Tracking 22100 objects as of 20-Jan-2021
HD Live streaming from Space Station
objects crossing your sky now

EKRAN 7

Track EKRAN 7 now!
EKRAN 7 is classified as:


NORAD ID: 12564
Int'l Code: 1981-061A
Perigee: 35,755.6 km
Apogee: 35,808.8 km
Inclination: 11.0 °
Period: 1,435.5 minutes
Semi major axis: 42153 km
RCS: 3.9811 m2 (large)
Launch date: June 26, 1981
Source: Commonwealth of Independent States (former USSR) (CIS)
Launch site: TYURATAM MISSILE AND SPACE COMPLEX (TTMTR)
aabbcc
Your satellite tracking list
Your tracking list is empty




NASA's NSSDC Master Catalog

Two Line Element Set (TLE):
1 12564U 81061A   21018.93772435  .00000058  00000-0  00000-0 0  9999
2 12564  11.0362 313.0414 0006307  41.0150 159.5653  1.00313060109701
Source of the keplerian elements: AFSPC